Regional Weather Roundup
Issued by NWS Little Rock, AR

Home | Current Version | Previous Version | Text Only | Print | Product List | Glossary Off
Versions: 1 2 3 4 5 6 7 8 9 10 11 12 13 14 15 16 17 18 19 20 21 22 23 24 25 26 27 28 29 30 31 32 33 34 35 36 37 38 39 40 41 42 43 44 45 46 47 48 49 50

000
ASUS44 KLZK 221705
RWRLZK

WEATHER ROUNDUP FOR ARKANSAS
NATIONAL WEATHER SERVICE LITTLE ROCK AR
1100 AM CST SUN JAN 22 2017

NOTE: "FAIR" INDICATES FEW OR NO CLOUDS BELOW 12,000 FEET WITH NO
SIGNIFICANT WEATHER AND/OR OBSTRUCTIONS TO VISIBILITY.

ARZ001-003-010-029-221800-
NORTHWEST ARKANSAS

CITY           SKY/WX    TMP DP  RH WIND       PRES   REMARKS
FAYETTEVILLE   CLOUDY    53  52  96 N12       29.44R
FORT SMITH     LGT RAIN  53  51  93 W10       29.42R FOG
HARRISON       LGT RAIN  53  53 100 N9        29.43S
BENTONVILLE    CLOUDY   N/A N/A N/A N13G20    29.48R
ROGERS         CLOUDY    51  50  96 N13       29.48R
SILOAM SPGS    CLOUDY    50  46  87 N20G25    29.47R
HIGHFILL       CLOUDY    51  49  92 N20       29.47R
SPRINGDALE     CLOUDY    54  54 100 N12       29.46R
$$

ARZ004-005-016-221800-
NORTH CENTRAL ARKANSAS

CITY           SKY/WX    TMP DP  RH WIND       PRES   REMARKS
BATESVILLE     CLOUDY    55  54  94 CALM      29.41F
FLIPPIN        CLOUDY    54  48  82 CALM      29.41S
MTN HOME       LGT RAIN  54  53  97 NE5       29.41F
$$

ARZ040-041-221800-
WEST CENTRAL ARKANSAS

CITY           SKY/WX    TMP DP  RH WIND       PRES   REMARKS
MENA           CLOUDY    54  54 100 W6        29.43R
MOUNT IDA      CLOUDY    54  52  93 VRB5      29.38F
$$

ARZ009-017-025-026-028-221800-
NORTHEAST ARKANSAS

CITY           SKY/WX    TMP DP  RH WIND       PRES   REMARKS
CORNING        PTSUNNY   55  55 100 NE8       29.42S
JONESBORO      CLOUDY    56  54  93 CALM      29.40S
NEWPORT        PTSUNNY   56  55  97 MISG      29.40F
WALNUT RIDGE   CLOUDY    55  52  88 N7        29.40F
BLYTHEVILLE    CLOUDY    58  54  86 E13       29.40F
$$

ARZ022-023-033-042-044-221800-
CENTRAL ARKANSAS

CITY           SKY/WX    TMP DP  RH WIND       PRES   REMARKS
LITTLE ROCK    LGT RAIN  55  55 100 N3        29.39S
JACKSONVILLE   RAIN      55  55 100 NW3       29.38S FOG
SEARCY         LGT RAIN  55  55 100 NE3       29.41F
HOT SPRINGS    CLOUDY    54  51  90 W5        29.40R
RUSSELLVILLE   RAIN      52  50  93 NW5       29.40R
$$

ARZ036-221800-
EAST ARKANSAS

CITY           SKY/WX    TMP DP  RH WIND       PRES   REMARKS
WEST MEMPHIS   CLOUDY    57  56  96 CALM      29.36F
$$

ARZ050-053-066-070-073-221800-
SOUTHWEST ARKANSAS

CITY           SKY/WX    TMP DP  RH WIND       PRES   REMARKS
ARKADELPHIA    LGT RAIN  56  53  90 W9        29.41S
CAMDEN         PTSUNNY   54  48  82 W3        29.41S
TEXARKANA      CLOUDY    56  44  64 W13       29.44R
EL DORADO        N/A    N/A N/A N/A MISG      29.42R
DE QUEEN       CLOUDY    56  51  84 W5        29.43R
$$

ARZ056-057-069-221800-
SOUTHEAST ARKANSAS

CITY           SKY/WX    TMP DP  RH WIND       PRES   REMARKS
PINE BLUFF     CLOUDY    57  52  83 SW9       29.38F
STUTTGART      CLOUDY    55  48  76 S14       29.39F
MONTICELLO     PTSUNNY   59  52  77 S13       29.38F

$$





USA.gov is the U.S. government's official web portal to all federal, state and local government web resources and services.